Location: Piotrkow Trybunalski
(51.4000°N, 19.6830°E)
Time: 08:07:01
(UTC+01:00)

BlueWalker 3 - Pass Details

Date: 06 December 2022
Orbit: 499 x 517 km, 53.2° (Epoch: 29 January)

Event Time Altitude Azimuth Distance (km) Brightness Sun altitude
Rises 19:00:38 0° 289° (WNW) 2,627 6.6 -31.1°
Reaches altitude 10° 19:02:59 10° 279° (W) 1,733 5.5 -31.4°
Enters shadow 19:04:30 20° 265° (W) 1,234 4.6 -31.7°
